Location: Newark
(55.8429°N, 38.1995°E)
Time: 20:13:46
(UTC+00:00)

Envisat - Visible Passes

Search period start: 21 October 2019 00:00
Search period end: 31 October 2019 00:00
Orbit: 764 x 766 km, 98.1° (Epoch: 21 October)

Date Brightness Start Highest point End Pass type
(mag) Time Alt. Az. Time Alt. Az. Time Alt. Az.
21 Oct 3.1 15:16:43 10° SSE 15:21:49 83° WSW 15:26:57 10° NNW visible
21 Oct 5.9 16:58:27 10° SW 17:01:39 17° W 17:04:53 10° NW visible
22 Oct 6.0 03:18:29 10° NE 03:22:19 21° E 03:26:06 10° SE visible
22 Oct 3.1 14:40:08 10° SE 14:45:05 55° ENE 14:50:04 10° N visible
22 Oct 5.0 16:19:58 10° SSW 16:24:25 30° W 16:28:54 10° NNW visible
23 Oct 6.5 02:43:31 10° ENE 02:44:57 11° E 02:46:22 10° E visible
23 Oct 3.8 15:42:24 10° S 15:47:23 55° W 15:52:24 10° NNW visible
23 Oct 6.3 17:26:43 10° W 17:27:37 10° W 17:28:30 10° WNW visible
24 Oct 3.0 15:05:27 10° SSE 15:10:32 83° ENE 15:15:40 10° NNW visible
24 Oct 5.6 16:46:33 10° SW 16:50:13 20° W 16:53:56 10° NW visible
25 Oct 6.0 03:07:31 10° NE 03:10:53 17° E 03:14:14 10° SE visible
25 Oct 4.6 16:08:24 10° SSW 16:13:04 36° W 16:17:45 10° NNW visible
26 Oct 3.5 15:31:02 10° S 15:36:04 66° WSW 15:41:10 10° NNW visible
26 Oct 6.1 17:13:53 10° WSW 17:16:08 13° W 17:18:24 10° NW visible
27 Oct 5.6 03:32:26 10° NE 03:36:43 26° E 03:40:59 10° SSE visible
27 Oct 3.0 14:54:14 10° SSE 14:59:17 70° ENE 15:04:22 10° NNW visible
27 Oct 5.4 16:34:46 10° SW 16:38:49 24° W 16:42:54 10° NW visible
28 Oct 6.2 02:56:40 10° NE 02:59:27 15° E 03:02:13 10° ESE visible
28 Oct 4.3 15:56:53 10° SSW 16:01:43 42° W 16:06:34 10° NNW visible
29 Oct 3.2 15:19:42 10° SSE 15:24:47 78° WSW 15:29:55 10° NNW visible
29 Oct 5.9 17:01:42 10° WSW 17:04:41 15° W 17:07:41 10° NW visible
30 Oct 5.8 03:21:22 10° NE 03:25:19 22° E 03:29:16 10° SE visible
30 Oct 3.0 14:43:03 10° SE 14:48:02 59° ENE 14:53:03 10° N visible
30 Oct 5.1 16:23:05 10° SSW 16:27:26 28° W 16:31:48 10° NNW visible
